Location: Bay Harbour
(38.2612°N, 75.2555°W)
Time: 01:06:19
(UTC+00:00)

Meteor 2-10 Rocket - Pass Details

Date: 29 October 2020
Orbit: 734 x 885 km, 81.2° (Epoch: 02 December)

Event Time Altitude Azimuth Distance (km) Brightness Sun altitude
Rises 22:49:01 0° 171° (S) 3,317 6.8 -9.4°
Reaches altitude 10° 22:51:31 10° 166° (SSE) 2,365 6.0 -9.8°
Maximum altitude 22:56:34 46° 94° (E) 1,039 3.8 -10.8°
Drops below altitude 10° 23:01:28 10° 22° (NNE) 2,294 5.7 -11.8°
Sets 23:03:51 0° 17° (NNE) 3,206 6.5 -12.2°
